TimeEDT,TemperatureF,Dew PointF,Humidity,Sea Level PressureIn,VisibilityMPH,Wind Direction,Wind SpeedMPH,Gust SpeedMPH,PrecipitationIn,Events,Conditions,WindDirDegrees,DateUTC
12:53 AM,77.0,72.0,84,30.09,10.0,ESE,17.3,-,N/A,,Partly Cloudy,110,2013-05-29 04:53:00
1:53 AM,75.9,72.0,87,30.08,10.0,ESE,15.0,-,N/A,,Clear,110,2013-05-29 05:53:00
2:53 AM,75.9,71.1,85,30.07,10.0,ESE,16.1,-,N/A,,Clear,120,2013-05-29 06:53:00
3:53 AM,75.9,72.0,87,30.05,10.0,ESE,15.0,-,N/A,,Partly Cloudy,120,2013-05-29 07:53:00
4:53 AM,75.0,72.0,90,30.04,10.0,ESE,18.4,-,N/A,,Clear,120,2013-05-29 08:53:00
5:53 AM,75.0,72.0,90,30.04,10.0,SE,17.3,-,N/A,,Clear,130,2013-05-29 09:53:00
6:53 AM,75.0,72.0,90,30.05,10.0,ESE,16.1,-,N/A,,Clear,120,2013-05-29 10:53:00
7:53 AM,75.9,73.0,91,30.08,10.0,ESE,16.1,-,N/A,,Clear,110,2013-05-29 11:53:00
8:53 AM,78.1,72.0,81,30.09,10.0,East,15.0,-,N/A,,Clear,100,2013-05-29 12:53:00
9:53 AM,81.0,72.0,74,30.09,10.0,ESE,11.5,-,N/A,,Clear,110,2013-05-29 13:53:00
10:53 AM,82.9,72.0,69,30.09,10.0,ESE,12.7,-,N/A,,Scattered Clouds,120,2013-05-29 14:53:00
11:53 AM,86.0,71.1,61,30.09,10.0,ESE,15.0,-,N/A,,Clear,120,2013-05-29 15:53:00
12:53 PM,87.1,71.1,59,30.08,10.0,SE,12.7,-,N/A,,Clear,130,2013-05-29 16:53:00
1:53 PM,88.0,70.0,55,30.06,10.0,SE,20.7,24.2,N/A,,Mostly Cloudy,140,2013-05-29 17:53:00
2:41 PM,89.1,70.0,53,30.06,10.0,ESE,17.3,-,N/A,Thunderstorm,Mostly Cloudy,110,2013-05-29 18:41:00
2:53 PM,86.0,70.0,59,30.06,10.0,ESE,20.7,29.9,N/A,Thunderstorm,Mostly Cloudy,110,2013-05-29 18:53:00
3:06 PM,84.0,71.1,65,30.06,10.0,East,25.3,-,N/A,Thunderstorm,Thunderstorm,80,2013-05-29 19:06:00
3:21 PM,82.0,72.0,71,30.06,10.0,East,19.6,-,N/A,,Partly Cloudy,80,2013-05-29 19:21:00
3:53 PM,82.0,72.0,71,30.04,10.0,East,23.0,-,N/A,,Unknown,80,2013-05-29 19:53:00
4:53 PM,82.9,72.0,69,30.02,10.0,East,24.2,-,N/A,,Scattered Clouds,90,2013-05-29 20:53:00
5:53 PM,77.0,70.0,79,30.05,9.0,ESE,20.7,-,0.01,Rain,Light Rain,120,2013-05-29 21:53:00
6:53 PM,79.0,71.1,77,30.04,10.0,East,16.1,-,0.00,,Partly Cloudy,100,2013-05-29 22:53:00
7:53 PM,80.1,70.0,71,30.04,10.0,East,17.3,-,N/A,,Clear,100,2013-05-29 23:53:00
8:53 PM,79.0,71.1,77,30.05,10.0,ESE,19.6,-,N/A,,Partly Cloudy,110,2013-05-30 00:53:00
9:53 PM,79.0,71.1,77,30.07,10.0,ESE,16.1,-,N/A,,Clear,110,2013-05-30 01:53:00
10:53 PM,79.0,73.0,82,30.07,10.0,East,19.6,-,N/A,,Clear,100,2013-05-30 02:53:00
11:53 PM,78.1,73.0,84,30.07,10.0,ESE,17.3,-,N/A,,Partly Cloudy,110,2013-05-30 03:53:00